Find OneWeb SL0429

NORAD ID: 50500 Int'l Des: 2021-132 Owner: ONEWEBN Country: UK Constellation: oneweb operational
LEOCIRCULARPOLARONEWEB_TYPE

Live Position

Loading 3D Globe...

About OneWeb SL0429

Description loading...

Upcoming Passes

Passes for default location (London). Set your location on the main map for personalized predictions.

Altitude History

Loading altitude history...

Two-Line Element Set

1 50500U 21132AH 26103.38839319 .00000038 00000-0 62973-4 0 9997
2 50500 87.9216 348.3459 0001901 79.3415 280.7931 13.18686081213043
Epoch: Apr 13, 2026 • Age: 23 hours

Current Status

Altitude 1196.8 km
Velocity 7.26 km/s
Sub-Earth Point 49.63°N, 154.27°W
Launch Date Dec 27, 2021
Age 4.2 years
Type internet

Technical Details

Classification Payload
Mass 148.00 kg
Dry Mass 140.00 kg
Total Mass 148.00 kg
Length 1.30 m
Diameter 1.00 m
Span 5.00 m
Shape Trapezoid+2 pan
Manufacturer ONEWUS
Bus Type ARROW
Phase Status In Orbit
Owner/State ONEWEBN/UK

Most Searched